Location: Nitra
(0.0000°N, 18.0833°E)
Time: 17:54:40
(UTC+01:00)

MOS 1-B Rocket - Pass Details

Date: 24 January 2021
Orbit: 891 x 1605 km, 99.0° (Epoch: 01 March)

Event Time Altitude Azimuth Distance (km) Brightness Sun altitude
Exits shadow 20:26:00 75° 199° (SSW) 1,229 4.4 -34.2°
Drops below altitude 10° 20:32:59 10° 194° (SSW) 3,365 7.1 -35.8°
Sets 20:35:55 0° 193° (SSW) 4,437 7.9 -36.5°
